Location: Neuvy Saint Sepulchre
(46.5953°N, 1.8122°E)
Time: 12:45:59
(UTC+02:00)

ISS - Pass Details

Date: 03 October 2022
Orbit: 414 x 417 km, 51.6° (Epoch: 01 October)

Event Time Altitude Azimuth Distance (km) Brightness Sun altitude
Rises 20:27:14 0° 294° (WNW) 2,360 1.6 -10.8°
Reaches altitude 10° 20:29:23 10° 288° (WNW) 1,494 0.5 -11.2°
Maximum altitude 20:32:36 45° 215° (SW) 576 -2.9 -11.8°
Enters shadow 20:35:29 12° 142° (SE) 1,361 -1.6 -12.3°
